[[{"header":{"parameterUnit":"m.s-1","parameterCategory":2,"la1":30.2991,"la2":30.254,"lo1":-89.0895,"lo2":-89.0444,"dy":0.0017,"dx":0.0017,"nx":28,"ny":28,"refTime":"2024-05-22T03:00:00:Z","depth":"0","parameterNumber":2,"parameterNumberName":"U-component_of_CURRENTS"},"data":[0,0,0,0,0,0,0,0,0,0,0,0,0,0,0,0,0,0,0,0,0,0,0,0,0,0,0,0,0,0,0,0,0,0,0,0,0,0,0,0,0,0,0,0,0,0,0,0,0,0,0,0,0,0,0,0,0,0,0.2529,0.253,0,0.2574,0.2574,0.2574,0.2564,0.2563,0.2562,0.2562,0.2555,0.2556,0.2556,0,0,0,0,0,0,0,0,0,0,0,0,0,0.2436,0.2437,0.2529,0.253,0.253,0.2574,0.2574,0.2574,0.2564,0.2563,0.2562,0.2562,0.2555,0.2556,0.2556,0,0,0,0,0,0,0,0,0,0,0,0,0,0.2475,0.2437,0.2529,0.2533,0.2534,0.2574,0.2574,0.2574,0.2564,0.2563,0.2562,0.2561,0.2555,0.2556,0.2556,0.2577,0,0,0.2558,0.2558,0,0,0,0,0,0,0,0,0.2472,0.2478,0.2531,0.2533,0.2534,0.2565,0.2539,0.2574,0.2564,0.2549,0.2562,0.2561,0.2557,0.2557,0.2563,0.2576,0.2576,0.2558,0.2558,0.2558,0.2559,0,0,0,0,0,0,0,0.247,0.2476,0.2543,0.2532,0.2534,0.2533,0.2537,0.2545,0.2554,0.255,0.255,0.2561,0.2556,0.2563,0.2563,0.2576,0.2558,0.2558,0.2559,0.2559,0.2634,0.2635,0,0,0,0,0,0,0.2472,0.2474,0.2542,0.2545,0.2504,0.2536,0.254,0.2553,0.2555,0.2555,0.2561,0.256,0.2563,0.2563,0.2563,0.2609,0.2558,0.2559,0.2559,0.2632,0.2634,0.2636,0,0,0,0,0,0,0.247,0.2478,0.254,0.2512,0.2521,0.2539,0.2553,0.2555,0.2566,0.2564,0.2563,0.2572,0.2562,0.2562,0.2585,0.2608,0.2559,0.256,0.263,0.2633,0.2635,0.2688,0,0,0,0,0,0,0.2467,0.2477,0.2487,0.2513,0.2522,0.2573,0.2554,0.2556,0.2575,0.2574,0.2573,0.2571,0.2561,0.2584,0.2585,0.2608,0.256,0.2628,0.2631,0.2634,0.2684,0.2692,0.2699,0,0,0,0,0,0.2463,0.2482,0.2487,0.2496,0.2536,0.2574,0.2579,0.2586,0.2577,0.2591,0.2593,0.2572,0.2604,0.2586,0.2587,0.261,0.2626,0.263,0.2634,0.2681,0.269,0.2699,0,0,0,0,0,0,0.2444,0.2484,0.249,0.2518,0.2549,0.2574,0.259,0.2594,0.2608,0.2604,0.2593,0.2593,0.2621,0.2614,0.2594,0.2643,0.2612,0.2616,0.2648,0.2656,0.2664,0.2668,0.2561,0,0,0,0,0,0.2448,0.2473,0.2508,0.2533,0.255,0.2571,0.2587,0.2595,0.2611,0.2616,0.2617,0.2622,0.2639,0.2645,0.2654,0.2682,0.2701,0.2699,0.2706,0.2712,0.2718,0.2771,0.2784,0.2648,0.2648,0.2648,0,0,0.2445,0.2473,0.2485,0.2531,0.2553,0.2586,0.2578,0.261,0.2631,0.2614,0.264,0.2647,0.2653,0.2684,0.2696,0.2679,0.2766,0.2717,0.2722,0.2724,0.2777,0.279,0.2801,0.2651,0.265,0.265,0,0,0.2455,0.2482,0.2505,0.2538,0.2581,0.26,0.2612,0.2644,0.2653,0.2686,0.268,0.2704,0.2724,0.2735,0.2743,0.2798,0.2803,0.2803,0.2842,0.2894,0.2906,0.2916,0.2979,0.2994,0.2806,0.2806,0.2806,0,0.2448,0.2487,0.2518,0.2554,0.2581,0.2608,0.2638,0.2662,0.2694,0.271,0.2699,0.275,0.2748,0.2795,0.2815,0.2813,0.2852,0.2805,0.2904,0.2914,0.2924,0.2985,0.3002,0.2809,0.2809,0.2808,0.2808,0,0.2478,0.2512,0.2534,0.2587,0.2619,0.2654,0.2693,0.2722,0.2736,0.2758,0.2806,0.2816,0.2846,0.2854,0.2851,0.2921,0.2931,0.2907,0.2879,0.294,0.3002,0.3018,0.2813,0.2812,0.2811,0.2811,0,0,0.2447,0.2535,0.254,0.2567,0.2639,0.2663,0.2716,0.2767,0.2806,0.2834,0.2883,0.2913,0.2924,0.2935,0.2939,0.2982,0.3085,0.298,0.2982,0.304,0.3226,0.3222,0.3239,0.3085,0.3088,0.309,0.3249,0,0.2457,0.2516,0.2563,0.2617,0.2649,0.2702,0.275,0.2801,0.2847,0.2905,0.2929,0.2979,0.2955,0.2982,0.3022,0.3074,0.3127,0.3045,0.316,0.3164,0.315,0.3256,0.3178,0.3313,0.3265,0.3267,0.3269,0,0.2463,0.2505,0.2553,0.2631,0.265,0.2688,0.277,0.282,0.2914,0.2956,0.3015,0.3045,0.3121,0.3084,0.3206,0.3162,0.3201,0.3233,0.3239,0.3224,0.3189,0.324,0.3343,0.3293,0.3294,0.3292,0.329,0,0.241,0.2493,0.2525,0.2554,0.2649,0.2678,0.2731,0.2827,0.2878,0.2998,0.3061,0.314,0.32,0.3259,0.3327,0.3283,0.3466,0.3406,0.344,0.344,0.3389,0.3381,0.3451,0.3492,0.3492,0.3492,0.3491,0,0.2402,0.2423,0.2501,0.2522,0.2563,0.2644,0.271,0.2786,0.2899,0.2976,0.308,0.3158,0.325,0.3354,0.3386,0.3488,0.3519,0.348,0.3491,0.3408,0.3399,0.3362,0.3324,0.3498,0.3496,0.3495,0.3494,0,0.2335,0.2393,0.2426,0.2513,0.254,0.2564,0.2679,0.2732,0.287,0.298,0.3025,0.32,0.3355,0.3451,0.3578,0.3577,0.3579,0.3677,0.3584,0.358,0.3524,0.3491,0.34,0.3296,0.374,0.3741,0.3741,0,0.2304,0.2317,0.2388,0.2409,0.2446,0.2505,0.2551,0.2688,0.2758,0.2994,0.3039,0.3245,0.3366,0.3586,0.3658,0.3764,0.3627,0.3728,0.3609,0.3547,0.3519,0.3321,0.3223,0.3577,0.3577,0.3576,0.3576,0,0.2239,0.226,0.2289,0.2329,0.2368,0.2416,0.25,0.2555,0.2736,0.2855,0.303,0.3153,0.3412,0.3518,0.3691,0.372,0.3566,0.3719,0.368,0.3433,0.3197,0.3093,0.3455,0.3572,0.3572,0.3573,0.3573,0.3573,0.2177,0.2174,0.2217,0.2251,0.2284,0.2326,0.235,0.2464,0.257,0.2757,0.2932,0.3112,0.3366,0.3604,0.3612,0.3634,0.3539,0.3565,0.3547,0.3363,0.3199,0.3563,0.3665,0.3666,0.3666,0.3667,0.3668,0,0.2123,0.2132,0.2147,0.218,0.2177,0.223,0.2309,0.2334,0.243,0.2653,0.2809,0.3101,0.3255,0.3416,0.3579,0.351,0.3278,0.3428,0.3143,0.3066,0.3447,0.3378,0.3391,0.3391,0.3391,0.3391,0.3391,0.3391,0.2099,0.2094,0.2105,0.2078,0.209,0.2068,0.2097,0.2152,0.2289,0.2491,0.2677,0.2868,0.3224,0.3483,0.3498,0.3409,0.3142,0.3017,0.2962,0.3279,0.3288,0.3298,0.3224,0.3205,0.3205,0.2442,0.2437,0.2433]},{"header":{"parameterUnit":"m.s-1","parameterCategory":2,"la1":30.2991,"la2":30.254,"lo1":-89.0895,"lo2":-89.0444,"dy":0.0017,"dx":0.0017,"nx":28,"ny":28,"refTime":"2024-05-22T03:00:00:Z","depth":"0","parameterNumber":3,"parameterNumberName":"V-component_of_CURRENTS"},"data":[0,0,0,0,0,0,0,0,0,0,0,0,0,0,0,0,0,0,0,0,0,0,0,0,0,0,0,0,0,0,0,0,0,0,0,0,0,0,0,0,0,0,0,0,0,0,0,0,0,0,0,0,0,0,0,0,0,0,0.0121,0.0121,0,0.0044,0.0043,0.0042,-0.0003,-0.0003,-0.0003,-0.0003,-0.0115,-0.0118,-0.0121,0,0,0,0,0,0,0,0,0,0,0,0,0,0.0172,0.0172,0.0121,0.0121,0.012,0.0044,0.0043,0.0042,-0.0003,-0.0003,-0.0003,-0.0003,-0.0114,-0.0118,-0.0121,0,0,0,0,0,0,0,0,0,0,0,0,0,0.0127,0.0172,0.0122,0.009,0.0086,0.0044,0.0043,0.0041,-0.0003,-0.0003,-0.0003,-0.0003,-0.0113,-0.0117,-0.0122,-0.0149,0,0,-0.0135,-0.0137,0,0,0,0,0,0,0,0,0.0129,0.0125,0.0095,0.0092,0.0088,0.0032,0.002,-0.0023,-0.0003,0.0029,-0.0003,-0.0003,-0.0068,-0.0076,-0.0093,-0.0154,-0.0159,-0.0136,-0.0139,-0.014,-0.0142,0,0,0,0,0,0,0,0.0133,0.0127,0.0089,0.0094,0.009,0.0059,0.0053,0.0011,-0.002,0.0026,0.0023,0.0017,-0.0071,-0.0088,-0.0096,-0.016,-0.0136,-0.014,-0.0142,-0.0144,-0.0247,-0.0247,0,0,0,0,0,0,0.0149,0.0131,0.0091,0.0087,0.0111,0.0059,0.0052,0.0048,-0.0019,-0.0029,0.0017,0.0016,-0.0081,-0.0091,-0.01,-0.0127,-0.014,-0.0145,-0.0147,-0.0247,-0.0247,-0.0247,0,0,0,0,0,0,0.015,0.0146,0.0095,0.0108,0.01,0.0059,0.0055,0.0047,0.0033,-0.0025,-0.0036,0.0012,-0.0081,-0.0094,-0.013,-0.0132,-0.0147,-0.0151,-0.0247,-0.0247,-0.0247,-0.0187,0,0,0,0,0,0,0.0152,0.0147,0.015,0.011,0.01,0.0079,0.0054,0.0045,0.003,0.0027,-0.0033,-0.0044,-0.0082,-0.0123,-0.0134,-0.0138,-0.0154,-0.0247,-0.0247,-0.0247,-0.0189,-0.0185,-0.0182,0,0,0,0,0,0.0154,0.0163,0.0151,0.0146,0.0105,0.008,0.0072,0.0041,0.003,0.0028,-0.0012,-0.0042,-0.0132,-0.0126,-0.014,-0.0145,-0.0247,-0.0247,-0.0247,-0.0191,-0.0186,-0.0182,0,0,0,0,0,0,0.0187,0.0158,0.0144,0.0143,0.0118,0.0073,0.0069,0.0047,0.0013,0.0011,-0.0043,-0.0057,-0.0089,-0.0125,-0.0118,-0.0175,-0.0194,-0.0197,-0.0147,-0.0143,-0.0139,-0.0108,-0.0158,0,0,0,0,0,0.0196,0.0194,0.016,0.0159,0.0151,0.0111,0.0097,0.0076,0.0041,0.0027,-0.0015,-0.0061,-0.0102,-0.0126,-0.0166,-0.0199,-0.0216,-0.0211,-0.0208,-0.0204,-0.0188,-0.0219,-0.0217,-0.0247,-0.0247,-0.0247,0,0,0.0207,0.0193,0.019,0.0166,0.0144,0.0137,0.0102,0.0088,0.008,0.0019,-0.0003,-0.0048,-0.0106,-0.014,-0.0159,-0.017,-0.0204,-0.0205,-0.0201,-0.0187,-0.0219,-0.0216,-0.0213,-0.0247,-0.0247,-0.0247,0,0,0.0234,0.0218,0.0227,0.0211,0.0186,0.016,0.0161,0.0121,0.0103,0.0074,0.0029,-0.0014,-0.0075,-0.0119,-0.0148,-0.015,-0.0181,-0.0165,-0.0127,-0.0158,-0.0155,-0.0153,-0.0162,-0.0161,-0.0167,-0.0167,-0.0167,0,0.025,0.0257,0.0226,0.0231,0.0225,0.0177,0.0187,0.0157,0.011,0.0102,0.0079,-0.0006,-0.0064,-0.0103,-0.0109,-0.0142,-0.0151,-0.0138,-0.0151,-0.0149,-0.0148,-0.0159,-0.0158,-0.0164,-0.0164,-0.0165,-0.0165,0,0.0282,0.0288,0.0293,0.0284,0.0272,0.0272,0.0234,0.0218,0.0189,0.0161,0.0125,0.0047,0.0002,-0.0034,-0.0076,-0.0099,-0.0105,-0.0138,-0.0156,-0.0141,-0.0153,-0.0154,-0.016,-0.0161,-0.0162,-0.0163,0,0,0.032,0.0318,0.032,0.0332,0.0304,0.03,0.0289,0.0271,0.0281,0.0217,0.0224,0.0126,0.0093,0.0057,-0.0006,-0.0046,-0.0061,-0.0082,-0.0085,-0.008,-0.0104,-0.0117,-0.012,-0.0092,-0.0092,-0.0092,-0.0113,0,0.0357,0.0389,0.0371,0.0397,0.0412,0.0372,0.0375,0.035,0.0323,0.0316,0.0233,0.0213,0.0125,0.0111,0.0054,-0.0024,-0.0061,-0.0051,-0.0129,-0.0131,-0.0136,-0.0121,-0.0112,-0.013,-0.0114,-0.0114,-0.0114,0,0.0396,0.0416,0.0453,0.0472,0.0476,0.0481,0.0488,0.0485,0.0456,0.044,0.0397,0.0342,0.0272,0.02,0.0075,0.0091,0.0004,-0.0066,-0.0069,-0.0099,-0.0146,-0.0147,-0.0133,-0.0319,-0.0116,-0.0116,-0.0115,0,0.0449,0.0473,0.0509,0.0511,0.052,0.0534,0.0542,0.0529,0.0555,0.053,0.0556,0.0452,0.0429,0.0298,0.0145,0.0117,0.0022,-0.0039,-0.0131,-0.0132,-0.0149,-0.0152,-0.0314,-0.012,-0.0119,-0.0119,-0.0119,0,0.0499,0.0529,0.054,0.0562,0.0622,0.0603,0.0666,0.0658,0.0678,0.0741,0.0635,0.0664,0.0455,0.037,0.0205,0.0051,0.0067,-0.0109,-0.0138,-0.0128,-0.0128,-0.0312,-0.0412,-0.012,-0.012,-0.012,-0.012,0,0.055,0.0554,0.0604,0.0631,0.065,0.0695,0.0764,0.081,0.0822,0.0903,0.0909,0.0834,0.0725,0.0517,0.0318,0.0152,-0.0116,-0.0073,-0.0035,-0.0061,-0.0339,-0.0435,-0.06,-0.0697,-0.018,-0.0181,-0.0181,0,0.058,0.0609,0.0663,0.0708,0.0726,0.0795,0.0852,0.0882,0.0946,0.1022,0.1073,0.1,0.0973,0.0676,0.0355,0.0078,-0.0112,-0.0096,-0.0169,-0.0342,-0.0471,-0.0541,-0.0617,-0.0164,-0.0164,-0.0164,-0.0164,0,0.0644,0.0657,0.07,0.0797,0.0862,0.0948,0.1036,0.1119,0.1181,0.1256,0.1355,0.135,0.1067,0.0781,0.0383,0.0176,-0.023,-0.0108,-0.0305,-0.048,-0.0549,-0.0658,-0.0153,-0.0166,-0.0166,-0.0165,-0.0165,-0.0165,0.0696,0.0744,0.0807,0.09,0.0981,0.1108,0.1214,0.1317,0.1459,0.1613,0.1578,0.1618,0.119,0.0639,0.0319,-0.0249,-0.0264,-0.0421,-0.0522,-0.0576,-0.0682,-0.0167,-0.0209,-0.0209,-0.0209,-0.0209,-0.0209,0,0.0772,0.083,0.0914,0.1036,0.1143,0.117,0.1342,0.1463,0.166,0.178,0.1869,0.1696,0.1159,0.0611,-0.016,-0.0577,-0.0743,-0.0802,-0.0918,-0.0977,-0.053,-0.0545,-0.064,-0.0639,-0.0639,-0.0639,-0.0639,-0.0639,0.0824,0.0923,0.0969,0.1165,0.1251,0.1424,0.1541,0.1713,0.1843,0.2022,0.2057,0.2041,0.1641,0.0226,-0.0743,-0.0978,-0.1265,-0.1324,-0.1484,-0.1201,-0.1174,-0.1148,-0.1188,-0.1416,-0.1417,-0.1885,-0.189,-0.1894]}],[{"header":{"parameterUnit":"m.s-1","parameterCategory":2,"la1":30.2991,"la2":30.254,"lo1":-89.0895,"lo2":-89.0444,"dy":0.0017,"dx":0.0017,"nx":28,"ny":28,"refTime":"2024-05-22T03:00:00:Z","depth":"2","parameterNumber":2,"parameterNumberName":"U-component_of_CURRENTS"},"data":[0,0,0,0,0,0,0,0,0,0,0,0,0,0,0,0,0,0,0,0,0,0,0,0,0,0,0,0,0,0,0,0,0,0,0,0,0,0,0,0,0,0,0,0,0,0,0,0,0,0,0,0,0,0,0,0,0,0,0.2372,0.2372,0,0.2409,0.2409,0.2409,0.241,0.241,0.241,0.241,0.2425,0.2425,0.2425,0,0,0,0,0,0,0,0,0,0,0,0,0,0.2283,0.2285,0.2372,0.2373,0.2373,0.2409,0.2409,0.2409,0.241,0.241,0.241,0.241,0.2424,0.2425,0.2425,0,0,0,0,0,0,0,0,0,0,0,0,0,0.2316,0.2285,0.2371,0.2382,0.2384,0.2409,0.2409,0.2409,0.241,0.241,0.241,0.241,0.2424,0.2425,0.2425,0.2428,0,0,0.2427,0.2427,0,0,0,0,0,0,0,0,0.2314,0.2319,0.238,0.2382,0.2384,0.241,0.2384,0.2416,0.241,0.2395,0.241,0.241,0.2421,0.2422,0.2421,0.2429,0.2429,0.2427,0.2427,0.2428,0.2428,0,0,0,0,0,0,0,0.2312,0.2317,0.2381,0.2381,0.2383,0.238,0.2384,0.239,0.2403,0.2396,0.2398,0.241,0.2421,0.2421,0.2422,0.243,0.2427,0.2427,0.2428,0.2428,0.2515,0.2516,0,0,0,0,0,0,0.2319,0.2315,0.238,0.2383,0.2354,0.2382,0.2386,0.2397,0.2403,0.2406,0.241,0.241,0.242,0.2421,0.2422,0.2484,0.2428,0.2428,0.2428,0.2513,0.2515,0.2517,0,0,0,0,0,0,0.2317,0.2325,0.2379,0.2354,0.2361,0.2384,0.2396,0.2398,0.2413,0.2415,0.2416,0.2426,0.242,0.2422,0.2456,0.2482,0.2428,0.2429,0.251,0.2513,0.2516,0.257,0,0,0,0,0,0,0.2314,0.2323,0.2335,0.2355,0.2363,0.2412,0.2396,0.2399,0.2423,0.2423,0.2429,0.2429,0.242,0.2455,0.2456,0.2482,0.2429,0.2508,0.2512,0.2515,0.2565,0.2574,0.2581,0,0,0,0,0,0.2311,0.233,0.2335,0.2344,0.2378,0.2414,0.2418,0.2429,0.2424,0.244,0.245,0.243,0.2479,0.2457,0.2458,0.2484,0.2506,0.2511,0.2515,0.2562,0.2572,0.2581,0,0,0,0,0,0,0.2299,0.2334,0.2339,0.2368,0.2397,0.2416,0.2435,0.244,0.2459,0.246,0.2453,0.2455,0.2494,0.2488,0.2464,0.2523,0.249,0.2495,0.2526,0.2535,0.2543,0.2554,0.243,0,0,0,0,0,0.2303,0.2328,0.2358,0.2385,0.24,0.2418,0.2434,0.2445,0.2465,0.2473,0.2479,0.2491,0.2511,0.2522,0.2535,0.2566,0.2575,0.2586,0.2594,0.2601,0.2612,0.2646,0.2658,0.2532,0.2532,0.2532,0,0,0.2304,0.233,0.2342,0.2385,0.2404,0.2432,0.2427,0.2462,0.2486,0.2472,0.2507,0.2519,0.2527,0.2565,0.2581,0.2563,0.2647,0.2606,0.2612,0.262,0.2652,0.2664,0.2674,0.2535,0.2534,0.2534,0,0,0.2321,0.2345,0.2368,0.24,0.2443,0.2454,0.2469,0.25,0.2515,0.2555,0.2553,0.2588,0.2611,0.2626,0.2635,0.2697,0.2689,0.2703,0.275,0.2782,0.2793,0.2802,0.2849,0.2862,0.2706,0.2706,0.2706,0,0.2318,0.2356,0.2381,0.2418,0.2448,0.2467,0.2498,0.2518,0.2558,0.2581,0.2577,0.2638,0.2641,0.2691,0.2717,0.2713,0.2738,0.2707,0.2792,0.2801,0.2809,0.2855,0.2868,0.2709,0.2709,0.2708,0.2708,0,0.2355,0.2388,0.241,0.2456,0.249,0.2527,0.2561,0.2589,0.2608,0.2634,0.2696,0.2712,0.2751,0.2759,0.2758,0.2825,0.2827,0.2796,0.2762,0.2825,0.287,0.2883,0.2714,0.2712,0.2712,0.2711,0,0,0.2331,0.2414,0.2422,0.2447,0.2516,0.254,0.2591,0.264,0.2675,0.2719,0.2771,0.2817,0.2837,0.285,0.2855,0.2888,0.2972,0.2877,0.2877,0.2917,0.3068,0.3039,0.305,0.2957,0.2959,0.2961,0.3082,0,0.2346,0.2406,0.2454,0.2507,0.2534,0.2584,0.2631,0.2684,0.2728,0.2783,0.282,0.2874,0.2868,0.2897,0.2932,0.2963,0.3007,0.2944,0.3008,0.3011,0.297,0.3064,0.2843,0.293,0.3094,0.3097,0.3098,0,0.236,0.2399,0.2452,0.2527,0.2546,0.2582,0.2657,0.2709,0.2796,0.2839,0.2906,0.2939,0.3016,0.2985,0.3085,0.3049,0.3073,0.3089,0.3093,0.3054,0.3005,0.2892,0.2947,0.312,0.3118,0.3116,0.3115,0,0.2312,0.2393,0.2429,0.246,0.2548,0.2581,0.2631,0.2724,0.2776,0.2881,0.2938,0.3021,0.3077,0.312,0.3174,0.3139,0.3274,0.3218,0.3217,0.3215,0.3035,0.3014,0.3285,0.3285,0.3285,0.3284,0.3284,0,0.2305,0.2328,0.2406,0.2427,0.2471,0.2556,0.2622,0.2687,0.2796,0.2867,0.2966,0.3031,0.3116,0.3198,0.3217,0.3281,0.3314,0.3257,0.3252,0.3051,0.303,0.3187,0.3174,0.3289,0.3288,0.3287,0.3286,0,0.224,0.2298,0.2333,0.2421,0.2448,0.2479,0.2598,0.2645,0.2775,0.287,0.2912,0.3067,0.3188,0.327,0.3358,0.3345,0.3391,0.3395,0.317,0.3137,0.33,0.3289,0.3412,0.3413,0.3413,0.3413,0.3413,0,0.2208,0.2222,0.2301,0.2323,0.236,0.2426,0.2471,0.2604,0.2665,0.2876,0.291,0.3086,0.3176,0.3334,0.3361,0.3425,0.3434,0.3231,0.3114,0.3335,0.3318,0.3306,0.3295,0.2905,0.2901,0.2897,0.2895,0,0.2142,0.2172,0.2202,0.2249,0.2288,0.2337,0.2419,0.2463,0.2631,0.2732,0.2875,0.2975,0.3164,0.3149,0.326,0.3244,0.3203,0.3166,0.3462,0.2907,0.2865,0.2846,0.2849,0.2865,0.2868,0.287,0.2872,0.2873,0.2084,0.2084,0.2134,0.2175,0.2208,0.2247,0.2267,0.2361,0.2452,0.2585,0.2735,0.2825,0.2924,0.2991,0.2937,0.2915,0.3117,0.2971,0.2976,0.2987,0.2907,0.2868,0.2854,0.2857,0.2859,0.2862,0.2863,0,0.2026,0.2046,0.2066,0.2104,0.2099,0.2164,0.2225,0.2231,0.2294,0.2438,0.2545,0.243,0.2483,0.257,0.2519,0.2554,0.2475,0.243,0.2302,0.2338,0.2369,0.225,0.2026,0.2023,0.2019,0.2016,0,0,0.2002,0.1999,0.2016,0.1998,0.2019,0.2,0.202,0.2035,0.2117,0.2127,0.2167,0.2387,0.2537,0.2242,0.2238,0.2125,0.2195,0.2043,0.2734,0.2624,0.2648,0.2725,0.2591,0,0,0,0,0]},{"header":{"parameterUnit":"m.s-1","parameterCategory":2,"la1":30.2991,"la2":30.254,"lo1":-89.0895,"lo2":-89.0444,"dy":0.0017,"dx":0.0017,"nx":28,"ny":28,"refTime":"2024-05-22T03:00:00:Z","depth":"2","parameterNumber":3,"parameterNumberName":"V-component_of_CURRENTS"},"data":[0,0,0,0,0,0,0,0,0,0,0,0,0,0,0,0,0,0,0,0,0,0,0,0,0,0,0,0,0,0,0,0,0,0,0,0,0,0,0,0,0,0,0,0,0,0,0,0,0,0,0,0,0,0,0,0,0,0,-0.0026,-0.0027,0,-0.0094,-0.0095,-0.0096,-0.0133,-0.0133,-0.0133,-0.0133,-0.0236,-0.0239,-0.0242,0,0,0,0,0,0,0,0,0,0,0,0,0,0.0015,0.0015,-0.0026,-0.0027,-0.0027,-0.0094,-0.0095,-0.0096,-0.0133,-0.0133,-0.0133,-0.0133,-0.0235,-0.0239,-0.0242,0,0,0,0,0,0,0,0,0,0,0,0,0,-0.0024,0.0015,-0.0026,-0.0053,-0.0055,-0.0093,-0.0095,-0.0096,-0.0133,-0.0133,-0.0133,-0.0133,-0.0234,-0.0238,-0.0242,-0.027,0,0,-0.0255,-0.0257,0,0,0,0,0,0,0,0,-0.0022,-0.0026,-0.0048,-0.0051,-0.0054,-0.0103,-0.0118,-0.0155,-0.0133,-0.0106,-0.0133,-0.0133,-0.0194,-0.0201,-0.0217,-0.0275,-0.028,-0.0256,-0.0258,-0.026,-0.0261,0,0,0,0,0,0,0,-0.0019,-0.0024,-0.0055,-0.0049,-0.0052,-0.008,-0.0085,-0.0125,-0.0152,-0.0108,-0.0111,-0.0115,-0.0196,-0.0212,-0.0219,-0.0281,-0.0255,-0.0259,-0.0262,-0.0263,-0.0355,-0.0355,0,0,0,0,0,0,-0.0004,-0.0021,-0.0053,-0.0057,-0.0035,-0.008,-0.0086,-0.0089,-0.0151,-0.0159,-0.0115,-0.0117,-0.0205,-0.0214,-0.0223,-0.0243,-0.026,-0.0264,-0.0266,-0.0355,-0.0355,-0.0355,0,0,0,0,0,0,-0.0003,-0.0006,-0.005,-0.0039,-0.0046,-0.0081,-0.0084,-0.009,-0.0102,-0.0155,-0.0165,-0.0118,-0.0206,-0.0217,-0.0248,-0.0248,-0.0266,-0.027,-0.0355,-0.0355,-0.0355,-0.0293,0,0,0,0,0,0,-0.0001,-0.0005,-0.0001,-0.0038,-0.0046,-0.006,-0.0084,-0.0092,-0.0104,-0.0106,-0.0161,-0.0171,-0.0206,-0.0241,-0.0252,-0.0254,-0.0273,-0.0355,-0.0355,-0.0355,-0.0295,-0.0291,-0.0287,0,0,0,0,0,0.0,0.001,-0.0001,-0.0004,-0.0039,-0.006,-0.0066,-0.0093,-0.0104,-0.0104,-0.014,-0.0169,-0.0248,-0.0245,-0.0257,-0.026,-0.0355,-0.0355,-0.0355,-0.0297,-0.0292,-0.0287,0,0,0,0,0,0,0.0032,0.0006,-0.0006,-0.0004,-0.0025,-0.0065,-0.0066,-0.0087,-0.0116,-0.0117,-0.0169,-0.0181,-0.0207,-0.0242,-0.0237,-0.0286,-0.0306,-0.0309,-0.0258,-0.0254,-0.025,-0.0221,-0.0276,0,0,0,0,0,0.0041,0.0042,0.0011,0.0013,0.0006,-0.003,-0.0041,-0.0058,-0.0089,-0.0101,-0.014,-0.0182,-0.0219,-0.024,-0.0276,-0.0305,-0.0329,-0.0315,-0.0311,-0.0307,-0.0293,-0.0331,-0.0329,-0.0354,-0.0354,-0.0354,0,0,0.0053,0.0041,0.004,0.002,0.0001,-0.0004,-0.0037,-0.0046,-0.005,-0.0109,-0.0126,-0.0168,-0.0222,-0.025,-0.0265,-0.0278,-0.0312,-0.0307,-0.0303,-0.029,-0.0331,-0.0328,-0.0326,-0.0354,-0.0354,-0.0354,0,0,0.0084,0.0069,0.008,0.0067,0.0047,0.0022,0.0024,-0.0011,-0.0026,-0.0049,-0.0092,-0.0129,-0.0184,-0.0224,-0.0252,-0.0248,-0.0286,-0.0261,-0.0223,-0.0261,-0.0259,-0.0257,-0.0279,-0.028,-0.0263,-0.0263,-0.0263,0,0.0101,0.011,0.008,0.0088,0.0086,0.0039,0.0051,0.0025,-0.0015,-0.0021,-0.0042,-0.0119,-0.0172,-0.0207,-0.0208,-0.0239,-0.0257,-0.0236,-0.0254,-0.0253,-0.0253,-0.0275,-0.0277,-0.026,-0.026,-0.0261,-0.0261,0,0.0137,0.0145,0.0152,0.0145,0.0136,0.014,0.0104,0.0091,0.0065,0.004,0.0009,-0.0062,-0.0104,-0.0136,-0.0174,-0.0198,-0.0209,-0.0241,-0.0262,-0.0246,-0.0271,-0.0274,-0.0256,-0.0257,-0.0258,-0.0258,0,0,0.0178,0.0178,0.0182,0.0193,0.017,0.0168,0.016,0.0144,0.0151,0.0097,0.0101,0.0017,-0.0014,-0.0046,-0.0106,-0.0149,-0.0173,-0.0186,-0.0189,-0.0198,-0.0238,-0.0258,-0.0263,-0.0203,-0.0204,-0.0204,-0.0254,0,0.0218,0.0252,0.0237,0.0264,0.0278,0.0241,0.0245,0.0224,0.0197,0.0186,0.0111,0.009,0.0018,0.0002,-0.0052,-0.0138,-0.0178,-0.0155,-0.0259,-0.0262,-0.0275,-0.0267,-0.0235,-0.0277,-0.0257,-0.0258,-0.0258,0,0.026,0.028,0.0319,0.0336,0.034,0.0347,0.035,0.035,0.0318,0.0301,0.026,0.0206,0.0137,0.0075,-0.0056,-0.0034,-0.0123,-0.0196,-0.0201,-0.024,-0.0287,-0.0293,-0.0284,-0.0263,-0.0263,-0.0263,-0.0262,0,0.031,0.0336,0.0372,0.0376,0.0385,0.0399,0.0406,0.0391,0.0414,0.0381,0.0394,0.0298,0.0268,0.014,-0.0015,-0.0031,-0.0154,-0.02,-0.0301,-0.0303,-0.0306,-0.0308,-0.0287,-0.0287,-0.0286,-0.0286,-0.0286,0,0.0358,0.0389,0.0401,0.0423,0.0479,0.0464,0.0521,0.051,0.0522,0.0568,0.0468,0.0474,0.0285,0.0188,0.003,-0.0134,-0.0121,-0.0283,-0.0317,-0.0284,-0.0283,-0.0299,-0.0299,-0.0288,-0.0288,-0.0287,-0.0287,0,0.0406,0.0413,0.0461,0.0488,0.0506,0.0549,0.0611,0.0649,0.0651,0.0707,0.0708,0.0616,0.0488,0.0294,0.0089,-0.0059,-0.023,-0.0293,-0.0233,-0.0259,-0.0364,-0.0361,-0.0407,-0.0408,-0.0409,-0.041,-0.041,0,0.0432,0.0461,0.0517,0.0558,0.0576,0.0641,0.0691,0.0714,0.0764,0.0797,0.0828,0.0732,0.0668,0.0361,0.0082,-0.0183,-0.0225,-0.0325,-0.0366,-0.0347,-0.0376,-0.0372,-0.0367,-0.0344,-0.0344,-0.0344,-0.0344,0,0.0485,0.0504,0.0543,0.0636,0.0695,0.0771,0.0846,0.0909,0.095,0.0994,0.1034,0.099,0.0708,0.0436,0.007,-0.0113,-0.0285,-0.0336,-0.033,-0.032,-0.0293,-0.032,-0.0317,-0.0345,-0.0345,-0.0345,-0.0344,-0.0344,0.0524,0.0566,0.0627,0.0715,0.0795,0.0899,0.0974,0.105,0.1149,0.122,0.1178,0.113,0.082,0.0354,0.003,-0.0295,-0.029,-0.0403,-0.0401,-0.0399,-0.0384,-0.0361,-0.0421,-0.0422,-0.0422,-0.0422,-0.0422,0,0.0562,0.0623,0.0706,0.0811,0.0901,0.0946,0.1075,0.1132,0.1253,0.1323,0.1345,0.1064,0.0761,0.0418,-0.0065,-0.0368,-0.039,-0.0455,-0.0415,-0.0412,-0.041,-0.0395,-0.0436,-0.0437,-0.0438,-0.0439,0,0,0.0588,0.0668,0.0716,0.0882,0.0968,0.1106,0.1188,0.1264,0.1339,0.1372,0.137,0.1303,0.0894,0.0542,0.0126,-0.0148,-0.0207,-0.0201,-0.0157,-0.0057,-0.0051,-0.0347,-0.0316,0,0,0,0,0]}],[{"header":{"parameterUnit":"m.s-1","parameterCategory":2,"la1":30.2991,"la2":30.254,"lo1":-89.0895,"lo2":-89.0444,"dy":0.0017,"dx":0.0017,"nx":28,"ny":28,"refTime":"2024-05-22T03:00:00:Z","depth":"4","parameterNumber":2,"parameterNumberName":"U-component_of_CURRENTS"},"data":[0,0,0,0,0,0,0,0,0,0,0,0,0,0,0,0,0,0,0,0,0,0,0,0,0,0,0,0,0,0,0,0,0,0,0,0,0,0,0,0,0,0,0,0,0,0,0,0,0,0,0,0,0,0,0,0,0,0,0.1437,0.1438,0,0.1497,0.1498,0.1499,0.1559,0.156,0.1561,0.1562,0.1633,0.1634,0.1635,0,0,0,0,0,0,0,0,0,0,0,0,0,0.1362,0.1363,0.1437,0.1438,0.1439,0.1497,0.1498,0.1499,0.1559,0.156,0.1561,0.1563,0.1633,0.1634,0.1635,0,0,0,0,0,0,0,0,0,0,0,0,0,0.1404,0.1364,0.1437,0.1478,0.1482,0.1497,0.1498,0.1499,0.1559,0.156,0.1562,0.1563,0.1632,0.1634,0.1635,0.1615,0,0,0.164,0.164,0,0,0,0,0,0,0,0,0.1402,0.1407,0.1471,0.1475,0.148,0.1524,0.1498,0.1539,0.1558,0.1528,0.1562,0.1564,0.1598,0.1602,0.1607,0.1618,0.1621,0.164,0.1641,0.1641,0.1642,0,0,0,0,0,0,0,0.1399,0.1404,0.1459,0.1472,0.1477,0.1489,0.1496,0.1506,0.1552,0.1531,0.1536,0.1545,0.16,0.1606,0.161,0.1622,0.164,0.1641,0.1642,0.1643,0.1731,0.1732,0,0,0,0,0,0,0.1394,0.1402,0.1457,0.1461,0.1446,0.1489,0.1497,0.1507,0.1552,0.1561,0.1543,0.1547,0.1603,0.1608,0.1612,0.1689,0.1641,0.1643,0.1643,0.1729,0.1731,0.1733,0,0,0,0,0,0,0.1392,0.1398,0.1455,0.1434,0.1443,0.1489,0.1499,0.1507,0.1546,0.1562,0.1571,0.1578,0.1604,0.161,0.1656,0.1689,0.1643,0.1645,0.1727,0.173,0.1732,0.178,0,0,0,0,0,0,0.139,0.1397,0.1415,0.1434,0.1444,0.1484,0.1498,0.1507,0.1548,0.1555,0.1594,0.16,0.1606,0.1654,0.1657,0.169,0.1646,0.1726,0.1728,0.1731,0.1776,0.1783,0.1789,0,0,0,0,0,0.1387,0.1401,0.1415,0.1423,0.1462,0.1485,0.1491,0.1527,0.1549,0.1567,0.1602,0.1601,0.1674,0.1656,0.166,0.1694,0.1724,0.1728,0.1731,0.1773,0.1782,0.1789,0,0,0,0,0,0,0.1377,0.1409,0.1426,0.1449,0.1475,0.1496,0.1521,0.1541,0.1582,0.1601,0.1615,0.1624,0.1675,0.1677,0.1657,0.1728,0.17,0.1704,0.1731,0.1739,0.1745,0.1752,0.1647,0,0,0,0,0,0.1382,0.1404,0.1431,0.1453,0.1469,0.1499,0.1519,0.1544,0.1575,0.1597,0.1626,0.1659,0.1684,0.1708,0.1726,0.1762,0.1776,0.1788,0.1795,0.18,0.1809,0.1859,0.1871,0.1743,0.1743,0.1743,0,0,0.1383,0.1405,0.1419,0.1454,0.1478,0.1503,0.1516,0.1555,0.1586,0.1596,0.1659,0.1681,0.1698,0.1743,0.1766,0.1755,0.1845,0.1805,0.1809,0.1815,0.1864,0.1877,0.1888,0.1746,0.1745,0.1745,0,0,0.1387,0.1419,0.1438,0.1463,0.1507,0.1525,0.1543,0.1585,0.162,0.1669,0.1689,0.1736,0.1775,0.18,0.1813,0.1865,0.1874,0.1875,0.192,0.1969,0.1979,0.1989,0.2027,0.2039,0.1884,0.1884,0.1884,0,0.1393,0.1418,0.1446,0.1471,0.1498,0.1538,0.1564,0.1599,0.1655,0.1689,0.17,0.1783,0.1801,0.1855,0.1882,0.1881,0.1908,0.1887,0.1977,0.1987,0.1996,0.2032,0.2046,0.1886,0.1886,0.1886,0.1886,0,0.1401,0.1436,0.1451,0.1497,0.1526,0.1559,0.1604,0.1654,0.1702,0.1736,0.1813,0.1844,0.19,0.191,0.1915,0.1992,0.1991,0.1975,0.1956,0.2012,0.2046,0.206,0.189,0.1889,0.1889,0.1888,0,0,0.1371,0.1444,0.1451,0.1485,0.1547,0.1571,0.1633,0.1695,0.1754,0.1811,0.1886,0.1934,0.1971,0.1989,0.2007,0.205,0.2141,0.2052,0.2053,0.2087,0.2255,0.2123,0.2125,0.2149,0.2151,0.2153,0.2254,0,0.1374,0.1422,0.146,0.1516,0.1546,0.161,0.1662,0.1729,0.1797,0.1882,0.1931,0.2006,0.1994,0.2044,0.2085,0.2133,0.2178,0.2115,0.2197,0.22,0.2074,0.2136,0.2161,0.2263,0.2266,0.2269,0.227,0,0.136,0.1401,0.1454,0.154,0.1561,0.1608,0.1713,0.177,0.1885,0.1944,0.2027,0.2075,0.2165,0.2144,0.2249,0.2216,0.2247,0.2267,0.2271,0.214,0.2092,0.2196,0.2294,0.2292,0.229,0.2289,0.2287,0,0.1316,0.1394,0.1442,0.147,0.157,0.1624,0.1689,0.1796,0.1866,0.2006,0.2074,0.2168,0.2247,0.2295,0.2347,0.232,0.2449,0.2411,0.2316,0.2307,0.2374,0.2362,0.2484,0.2484,0.2483,0.2483,0.2483,0,0.1291,0.1334,0.1435,0.1466,0.1539,0.1616,0.1714,0.1799,0.1929,0.201,0.2115,0.2187,0.2295,0.2373,0.2392,0.2397,0.249,0.2337,0.2328,0.2391,0.238,0.2383,0.237,0.2487,0.2486,0.2485,0.2485,0,0.1232,0.13,0.1367,0.1482,0.1525,0.1582,0.173,0.1795,0.1929,0.2044,0.2098,0.2248,0.2343,0.2417,0.2515,0.245,0.2469,0.2446,0.2526,0.2518,0.2282,0.2271,0.2344,0.234,0.2337,0.2335,0.2332,0,0.121,0.1236,0.1364,0.1411,0.1474,0.1573,0.1637,0.1785,0.1853,0.2051,0.2091,0.2249,0.2325,0.2353,0.244,0.2472,0.244,0.2435,0.2334,0.2286,0.2271,0.2264,0.2258,0.2327,0.2327,0.2326,0.2325,0,0.1164,0.1218,0.1271,0.1358,0.1438,0.1515,0.1622,0.1661,0.1822,0.196,0.204,0.2103,0.2209,0.2274,0.2327,0.2336,0.2426,0.2401,0.2406,0.2311,0.2266,0.2253,0.225,0.2314,0.2316,0.2317,0.2317,0,0.1127,0.115,0.1222,0.1287,0.1379,0.1426,0.1497,0.1573,0.1659,0.1862,0.1888,0.2042,0.2186,0.2206,0.2249,0.2258,0.2215,0.2131,0.2149,0.2162,0.2055,0.1968,0.193,0,0,0,0,0,0.1078,0.1093,0.1147,0.1211,0.1292,0.1347,0.1467,0.1536,0.1684,0.1694,0.1786,0.1869,0.195,0.2037,0.201,0.2173,0.2224,0.2133,0.2136,0.2253,0.2266,0.2156,0,0,0,0,0,0,0.1045,0.1091,0.1109,0.1125,0.1154,0.1231,0.1303,0.1406,0.1418,0.1577,0.163,0.1759,0.1864,0.1944,0.1974,0.2001,0.1965,0.2235,0.2231,0.2246,0.2258,0.2268,0.2159,0,0,0,0,0]},{"header":{"parameterUnit":"m.s-1","parameterCategory":2,"la1":30.2991,"la2":30.254,"lo1":-89.0895,"lo2":-89.0444,"dy":0.0017,"dx":0.0017,"nx":28,"ny":28,"refTime":"2024-05-22T03:00:00:Z","depth":"4","parameterNumber":3,"parameterNumberName":"V-component_of_CURRENTS"},"data":[0,0,0,0,0,0,0,0,0,0,0,0,0,0,0,0,0,0,0,0,0,0,0,0,0,0,0,0,0,0,0,0,0,0,0,0,0,0,0,0,0,0,0,0,0,0,0,0,0,0,0,0,0,0,0,0,0,0,-0.0056,-0.0056,0,-0.009,-0.009,-0.0091,-0.0123,-0.0123,-0.0124,-0.0124,-0.02,-0.0202,-0.0204,0,0,0,0,0,0,0,0,0,0,0,0,0,-0.0045,-0.0045,-0.0056,-0.0056,-0.0057,-0.009,-0.009,-0.0091,-0.0123,-0.0123,-0.0124,-0.0124,-0.02,-0.0202,-0.0204,0,0,0,0,0,0,0,0,0,0,0,0,0,-0.0062,-0.0045,-0.0056,-0.0076,-0.0078,-0.009,-0.009,-0.0091,-0.0123,-0.0123,-0.0124,-0.0124,-0.0199,-0.0202,-0.0204,-0.0209,0,0,-0.0212,-0.0213,0,0,0,0,0,0,0,0,-0.0061,-0.0062,-0.0073,-0.0075,-0.0077,-0.0102,-0.0115,-0.0132,-0.0123,-0.0106,-0.0124,-0.0125,-0.0171,-0.0176,-0.0181,-0.0212,-0.0216,-0.0212,-0.0214,-0.0215,-0.0215,0,0,0,0,0,0,0,-0.0059,-0.0061,-0.007,-0.0073,-0.0076,-0.0093,-0.0096,-0.0118,-0.0136,-0.0108,-0.011,-0.0113,-0.0172,-0.0178,-0.0183,-0.0217,-0.0212,-0.0214,-0.0216,-0.0217,-0.0263,-0.0262,0,0,0,0,0,0,-0.0052,-0.006,-0.0069,-0.0071,-0.007,-0.0092,-0.0096,-0.0094,-0.0135,-0.0141,-0.0113,-0.0114,-0.0174,-0.018,-0.0186,-0.0193,-0.0215,-0.0217,-0.0218,-0.0263,-0.0263,-0.0262,0,0,0,0,0,0,-0.0052,-0.0053,-0.0067,-0.0066,-0.0069,-0.0092,-0.009,-0.0094,-0.0103,-0.0138,-0.0146,-0.0116,-0.0174,-0.0182,-0.0203,-0.0196,-0.0218,-0.022,-0.0263,-0.0263,-0.0262,-0.0208,0,0,0,0,0,0,-0.0051,-0.0052,-0.005,-0.0065,-0.0069,-0.0068,-0.009,-0.0095,-0.0103,-0.0106,-0.0144,-0.0151,-0.0175,-0.0199,-0.0206,-0.02,-0.0222,-0.0264,-0.0263,-0.0263,-0.021,-0.0206,-0.0202,0,0,0,0,0,-0.0051,-0.0039,-0.0049,-0.0051,-0.0064,-0.0067,-0.007,-0.0089,-0.0103,-0.01,-0.0127,-0.015,-0.02,-0.0201,-0.0209,-0.0204,-0.0264,-0.0263,-0.0263,-0.0212,-0.0207,-0.0202,0,0,0,0,0,0,-0.0032,-0.0042,-0.0053,-0.0046,-0.0055,-0.0073,-0.0072,-0.0086,-0.0105,-0.011,-0.0147,-0.0156,-0.0171,-0.0195,-0.0194,-0.0215,-0.0236,-0.0237,-0.0195,-0.019,-0.0186,-0.0176,-0.0225,0,0,0,0,0,-0.0026,-0.0022,-0.0036,-0.003,-0.0033,-0.0053,-0.0058,-0.007,-0.0088,-0.0097,-0.0123,-0.0152,-0.0173,-0.0187,-0.0209,-0.0221,-0.0253,-0.0224,-0.0219,-0.0216,-0.0213,-0.0257,-0.0257,-0.026,-0.026,-0.026,0,0,-0.0018,-0.0023,-0.0021,-0.0026,-0.0036,-0.0031,-0.0057,-0.0059,-0.0057,-0.0103,-0.011,-0.0138,-0.0173,-0.0184,-0.0194,-0.0205,-0.0231,-0.0215,-0.0211,-0.0211,-0.0257,-0.0256,-0.0256,-0.026,-0.026,-0.026,0,0,0.0008,-0.0002,0.0012,0.0007,-0.0002,-0.0014,-0.0012,-0.0029,-0.0039,-0.0049,-0.008,-0.0106,-0.0137,-0.016,-0.0176,-0.0164,-0.0206,-0.017,-0.0144,-0.0186,-0.0186,-0.0187,-0.0221,-0.0226,-0.0169,-0.0169,-0.0169,0,0.0018,0.0032,0.0015,0.0027,0.0027,-0.0003,0.0012,0.0001,-0.0021,-0.0028,-0.0044,-0.0095,-0.0125,-0.0144,-0.0138,-0.0155,-0.0184,-0.0158,-0.0181,-0.0182,-0.0184,-0.0219,-0.0224,-0.0167,-0.0167,-0.0167,-0.0167,0,0.0053,0.0062,0.0071,0.0075,0.0073,0.008,0.0064,0.0059,0.0039,0.0022,-0.0002,-0.0045,-0.0077,-0.0089,-0.011,-0.0131,-0.0149,-0.0169,-0.0192,-0.018,-0.0218,-0.0225,-0.0163,-0.0164,-0.0164,-0.0165,0,0,0.008,0.0093,0.0096,0.0105,0.0098,0.0102,0.0106,0.0099,0.01,0.0067,0.006,0.0018,-0.0013,-0.0033,-0.0068,-0.0104,-0.0139,-0.0136,-0.0139,-0.0167,-0.0229,-0.0224,-0.0231,-0.0164,-0.0165,-0.0166,-0.0249,0,0.0111,0.0144,0.0141,0.0168,0.0181,0.0161,0.0169,0.0157,0.0135,0.0121,0.007,0.005,0.0011,-0.0004,-0.0046,-0.0116,-0.0154,-0.0114,-0.0239,-0.0242,-0.0237,-0.0237,-0.0168,-0.0254,-0.0256,-0.0257,-0.0258,0,0.0144,0.0161,0.0195,0.0213,0.0217,0.0229,0.0228,0.0234,0.0206,0.0188,0.0152,0.0109,0.0056,0.002,-0.0096,-0.0069,-0.0141,-0.0199,-0.0204,-0.0223,-0.0249,-0.0271,-0.027,-0.0269,-0.0268,-0.0267,-0.0266,0,0.0167,0.0198,0.0226,0.0232,0.0247,0.0259,0.0267,0.0253,0.0266,0.0232,0.0226,0.015,0.0117,0.0014,-0.0102,-0.0103,-0.0234,-0.0254,-0.0318,-0.0319,-0.0323,-0.0322,-0.0338,-0.0338,-0.0338,-0.0338,-0.0337,0,0.0196,0.0219,0.024,0.0256,0.0294,0.0291,0.0324,0.032,0.0319,0.0337,0.0265,0.0252,0.0113,0.0023,-0.009,-0.0221,-0.023,-0.0314,-0.0341,-0.0297,-0.0292,-0.0328,-0.0325,-0.0341,-0.034,-0.0339,-0.0339,0,0.0213,0.0228,0.0264,0.0292,0.0308,0.0334,0.0379,0.0398,0.039,0.041,0.0404,0.0325,0.0207,0.0062,-0.0106,-0.0195,-0.0327,-0.0372,-0.0306,-0.0329,-0.0388,-0.0382,-0.0453,-0.0454,-0.0454,-0.0455,-0.0455,0,0.0223,0.0244,0.0294,0.0323,0.034,0.0383,0.0416,0.0435,0.046,0.0456,0.0465,0.0368,0.0295,0.007,-0.0093,-0.0311,-0.0341,-0.041,-0.0406,-0.038,-0.04,-0.0393,-0.0387,-0.0456,-0.0456,-0.0456,-0.0456,0,0.024,0.0256,0.0285,0.0348,0.0392,0.0447,0.0497,0.0524,0.0545,0.0544,0.0522,0.0406,0.0273,0.0087,-0.0082,-0.024,-0.0367,-0.0415,-0.0416,-0.0413,-0.0384,-0.0402,-0.0395,-0.0458,-0.0457,-0.0457,-0.0457,0,0.0243,0.0266,0.0304,0.0358,0.0426,0.0485,0.0515,0.0548,0.0577,0.058,0.0573,0.043,0.0354,0.0124,-0.0034,-0.0189,-0.0232,-0.0281,-0.0289,-0.0289,-0.0219,-0.0158,-0.0184,0,0,0,0,0,0.0231,0.0253,0.0311,0.0367,0.0441,0.0478,0.0555,0.0577,0.0606,0.0606,0.0596,0.0477,0.0255,0.0155,0.0002,-0.0068,-0.0279,-0.0255,-0.0344,-0.0466,-0.0465,-0.0411,0,0,0,0,0,0,0.0215,0.0262,0.0296,0.0369,0.041,0.0486,0.0537,0.0561,0.0565,0.0578,0.0466,0.0429,0.021,0.0337,-0.0007,-0.0054,-0.0132,-0.0356,-0.0359,-0.0467,-0.0466,-0.0464,-0.0408,0,0,0,0,0]}]]